Weather History for Gary, IN

Change the Weather History Date:

Friday, September 5, 2014

  Actual Average Record
Temperature  
Mean Temperature 78 °F -  
Max Temperature 90 °F 78 °F 98 °F (1954)
Min Temperature 66 °F 56 °F 42 °F (1974)
Cooling Degree Days 12    
Growing Degree Days 28 (Base 50)    
Moisture  
Dew Point 69 °F    
Average Humidity 78    
Maximum Humidity 92    
Minimum Humidity 55    
Precipitation  
Precipitation 0.07 in - - ()
Sea Level Pressure  
Sea Level Pressure 29.99 in    
Wind  
Wind Speed 9 mph (SW)    
Max Wind Speed 34 mph    
Max Gust Speed 20 mph    
Visibility 10 miles    
Events Rain , Thunderstorm    
Averages and records for this station are not official NWS values.
T = Trace of Precipitation, MM = Missing Value Source: NWS Daily Summary

Daily Weather History Graph

Daily Weather History Graph

Search for Another Location

Airport:

Trip Planner

Search our weather history database for the weather conditions in past years. The results will help you decide how hot, cold, wet, or windy it might be!

Date:

Astronomy

Sep. 05, 2014 Rise Set
Actual Time 6:19 AM CDT 7:16 PM CDT
Civil Twilight 5:51 AM CDT 7:44 PM CDT
Nautical Twilight 5:17 AM CDT 8:17 PM CDT
Astronomical Twilight 4:42 AM CDT 8:52 PM CDT
Moon 4:46 PM CDT (9/5) 2:11 AM CDT (9/5)
Length of Visible Light 13h 52m
Length of Day
12h 56m
Waxing Gibbous, 84% of the Moon is Illuminated
Sep 5
Waxing Gibbous
Sep 8
Full
Sep 15
Last Quarter
Sep 24
New
Oct 1
First Quarter

Hourly Weather History & Observations

Time (CDT) Temp. Heat Index Dew Point Humidity Pressure Visibility Wind Dir Wind Speed Gust Speed Precip Events Conditions
12:15 AM 79.9 °F - 72.0 °F 77% 30.01 in 10.0 mi South 8.1 mph - N/A   Clear
12:35 AM 79.7 °F - 72.0 °F 77% 29.99 in 10.0 mi South 8.1 mph - N/A   Clear
12:55 AM 80.1 °F 83.8 °F 71.8 °F 76% 29.98 in 10.0 mi South 9.2 mph - N/A   Clear
1:15 AM 79.9 °F - 71.8 °F 76% 29.98 in 10.0 mi South 9.2 mph 17.3 mph N/A   Clear
1:35 AM 79.7 °F - 71.6 °F 76% 29.97 in 10.0 mi SSW 6.9 mph 18.4 mph N/A   Clear
1:55 AM 79.7 °F - 71.8 °F 77% 29.97 in 10.0 mi SSW 8.1 mph 19.6 mph N/A   Clear
2:15 AM 79.5 °F - 71.8 °F 77% 29.97 in 10.0 mi SSW 5.8 mph - N/A   Clear
2:35 AM 79.3 °F - 72.0 °F 78% 29.96 in 10.0 mi SSW 6.9 mph 16.1 mph N/A   Clear
2:55 AM 79.2 °F - 72.0 °F 78% 29.96 in 10.0 mi SSW 6.9 mph - N/A   Clear
3:15 AM 79.0 °F - 72.1 °F 79% 29.96 in 10.0 mi SSW 5.8 mph - N/A   Clear
3:35 AM 78.8 °F - 72.1 °F 80% 29.96 in 10.0 mi SSW 6.9 mph - N/A   Clear
3:55 AM 79.0 °F - 72.0 °F 79% 29.97 in 10.0 mi SSW 8.1 mph - N/A   Clear
4:15 AM 78.8 °F - 71.8 °F 79% 29.97 in 10.0 mi SW 6.9 mph - N/A   Clear
4:45 AM 78.8 °F - 71.6 °F 78% 29.98 in 10.0 mi SSW 10.4 mph - N/A   Clear
5:45 AM 77.0 °F - 71.6 °F 83% 29.99 in 10.0 mi SSW 8.1 mph - N/A   Clear
6:45 AM 77.0 °F - 71.6 °F 83% 29.99 in 10.0 mi SSW 8.1 mph - N/A   Partly Cloudy
7:45 AM 78.8 °F - 71.6 °F 78% 29.99 in 10.0 mi SSW 10.4 mph - N/A   Partly Cloudy
8:45 AM 82.4 °F 88.2 °F 73.4 °F 74% 29.98 in 10.0 mi SSW 12.7 mph - N/A   Clear
11:45 AM 87.8 °F 93.8 °F 71.6 °F 58% 29.97 in 15.0 mi WSW 13.8 mph - N/A   Scattered Clouds
1:45 PM 87.8 °F 93.8 °F 71.6 °F 58% 29.96 in 10.0 mi WSW 10.4 mph - N/A   Scattered Clouds
2:45 PM 89.6 °F 96.2 °F 71.6 °F 55% 29.92 in 10.0 mi SW 12.7 mph - N/A   Scattered Clouds
3:45 PM 87.8 °F 93.8 °F 71.6 °F 58% 29.91 in 10.0 mi SSW 13.8 mph - N/A   Scattered Clouds
4:45 PM 86.0 °F 90.4 °F 69.8 °F 58% 29.90 in 10.0 mi North 10.4 mph - N/A   Mostly Cloudy
5:35 PM 73.4 °F - 68.0 °F 83% 29.94 in 1.0 mi WNW 26.5 mph - N/A Rain , Thunderstorm Heavy Thunderstorms and Rain
5:45 PM 73.4 °F - 69.8 °F 88% 29.97 in 1.0 mi WNW 34.5 mph - N/A Rain , Thunderstorm Heavy Thunderstorms and Rain
6:15 PM 73.4 °F - 69.8 °F 88% 29.94 in 4.0 mi NNW 23.0 mph - N/A Rain , Thunderstorm Light Thunderstorms and Rain
7:45 PM 69.8 °F - 62.6 °F 78% 30.02 in 10.0 mi North 11.5 mph - N/A Rain Light Rain
8:45 PM 68.0 °F - 62.6 °F 83% 30.02 in 10.0 mi NNE 6.9 mph - N/A   Overcast
9:15 PM 67.6 °F - 61.7 °F 81% 30.04 in 10.0 mi Calm Calm - N/A Rain Rain
9:35 PM 67.3 °F - 64.0 °F 89% 30.04 in 10.0 mi Calm Calm - N/A Rain Light Rain
9:45 PM 68.0 °F - 64.4 °F 88% 30.04 in 10.0 mi Calm Calm - N/A   Overcast
9:55 PM 67.3 °F - 64.8 °F 92% 30.05 in 10.0 mi WNW 3.5 mph - N/A   Mostly Cloudy
10:15 PM 67.1 °F - 64.4 °F 91% 30.06 in 10.0 mi West 5.8 mph - N/A   Mostly Cloudy
10:35 PM 66.6 °F - 62.8 °F 88% 30.06 in 10.0 mi West 3.5 mph - N/A   Scattered Clouds
11:15 PM 66.4 °F - 63.0 °F 89% 30.06 in 10.0 mi West 4.6 mph - N/A   Scattered Clouds
11:55 PM 67.1 °F - 61.2 °F 81% 30.07 in 10.0 mi West 5.8 mph - N/A   Overcast